User: anonymous   Login
Location: Unspecified
(0.0000°N, 0.0000°E)
Time: 19:23:26
(UTC+00:00)
Language:

Oscar 19 - Orbit

View from above orbital plane
View from above orbital plane
View from above satellite
View from above satellite

Ground track
Ground track

The orbit data is extracted from the following two-line orbital elements,

1 20442U 90005G   19340.74486737 +.00000010 +00000-0 +20036-4 0  9995
2 20442 098.6684 282.5978 0012002 010.8518 349.2923 14.32939870560812
Epoch (UTC): 06 December 2019 17:52:36
Eccentricity: 0.0012002
inclination: 98.6684°
perigee height: 773 km
apogee height: 790 km
right ascension of ascending node: 282.5978°
argument of perigee: 10.8518°
revolutions per day: 14.32939870
mean anomaly at epoch: 349.2923°
orbit number at epoch: 56081

The dashed part of the orbit path shows where the satellite is in the earth's shadow,  

DLR